Weather History for CWEU - November, 2012

Change the Weather History Date:

Friday, November 9, 2012

  Actual Average Record
Temperature  
Mean Temperature -19 °F -  
Max Temperature -14 °F -20 °F 1 °F (1998)
Min Temperature -24 °F -34 °F -41 °F (2004)
Degree Days  
Heating Degree Days 84    
Moisture  
Dew Point -25 °F    
Average Humidity 64    
Maximum Humidity 70    
Minimum Humidity 50    
Precipitation  
Precipitation 0.00 in 0.00 in - ()
Sea Level Pressure  
Sea Level Pressure 30.01 in    
Wind  
Wind Speed 4 mph ()    
Max Wind Speed 9 mph    
Max Gust Speed -    
Visibility 14.8 miles    
Events Snow    
Averages and records for this station are not official NWS values.
T = Trace of Precipitation, MM = Missing Value Source: Averaged Metar Reports

Daily Weather History Graph

Daily Weather History Graph

Search for Another Location

Airport or City:

Trip Planner

Search our weather history database for the weather conditions in past years. The results will help you decide how hot, cold, wet, or windy it might be!

Date:

Astronomy

Dec. 31, 1969 Rise Set
Actual Time Sun does not rise Sun does not rise
Civil Twilight Sun does not rise Sun does not rise
Nautical Twilight 7:24 AM CST 3:28 PM CST
Astronomical Twilight 4:59 AM CST 5:52 PM CST
Moon 12:52 AM CST (11/9) 1:22 PM CST (11/9)
Length of Visible Light 0h 00m
Length of Day
0h 00m
Waning Crescent, 23% of the Moon is Illuminated
Nov 9
Waning Crescent
Nov 13
New
Nov 20
First Quarter
Nov 28
Full
Dec 6
Last Quarter

Hourly Weather History & Observations

Time (CST) Temp. Windchill Dew Point Humidity Pressure Visibility Wind Dir Wind Speed Gust Speed Precip Events Conditions
12:00 AM -15 °F - -23 °F 50% 30.01 in 15 mi SE 9.2 mph - - Snow Snow
12:00 AM -14.8 °F -32.2 °F -23.8 °F 64% 30.01 in 15.0 mi SE 8.1 mph - N/A   Clear
1:00 AM -14.8 °F -32.2 °F -22.0 °F 70% 30.01 in 15.0 mi SE 8.1 mph - N/A   Clear
2:00 AM -13.0 °F -30.0 °F -22.0 °F 64% 30.01 in 15.0 mi SE 8.1 mph - N/A   Clear
2:46 AM - - - N/A% - 15.0 mi SE 9.2 mph - N/A   Unknown
3:00 AM -14.8 °F -33.5 °F -22.0 °F 70% 30.01 in 15.0 mi SE 9.2 mph - N/A Snow Light Snow
4:00 AM -14.8 °F -33.5 °F -22.0 °F 70% 30.01 in 15.0 mi SE 9.2 mph - N/A Snow Light Snow
5:00 AM -14.8 °F -32.2 °F -23.8 °F 64% 30.01 in 15.0 mi SE 8.1 mph - N/A   Clear
6:00 AM -16 °F - -24 °F 51% 30.01 in 15 mi SE 5.8 mph - - Snow Snow
6:00 AM -16.6 °F -31.3 °F -23.8 °F 70% 30.01 in 15.0 mi SSE 5.8 mph - N/A   Clear
7:00 AM -20.2 °F - -27.4 °F 69% 30.01 in 15.0 mi Calm Calm - N/A   Partly Cloudy
8:00 AM -18.4 °F - -27.4 °F 63% 30.01 in 15.0 mi Calm Calm - N/A   Partly Cloudy
9:00 AM -20.2 °F - -29.2 °F 63% 30.01 in 15.0 mi ENE 2.3 mph - N/A   Partly Cloudy
10:00 AM -20.2 °F - -27.4 °F 69% 30.01 in 15.0 mi Calm Calm - N/A   Partly Cloudy
11:00 AM -20.2 °F - -29.2 °F 63% 30.02 in 15.0 mi Calm Calm - N/A   Partly Cloudy
12:00 PM -18 °F - -26 °F 51% 30.01 in 15 mi Calm Calm - - Snow Snow
12:00 PM -18.4 °F - -25.6 °F 70% 30.01 in 15.0 mi Calm Calm - N/A   Partly Cloudy
1:00 PM -16.6 °F - -25.6 °F 64% 30.02 in 15.0 mi Calm Calm - N/A   Clear
2:00 PM -16.6 °F - -25.6 °F 64% 30.02 in 15.0 mi East 2.3 mph - N/A   Clear
3:00 PM -16.6 °F - -25.6 °F 64% 30.02 in 15.0 mi Calm Calm - N/A   Clear
4:00 PM -16.6 °F - -25.6 °F 64% 30.02 in 12.0 mi Calm Calm - N/A   Clear
5:00 PM -18.4 °F - -25.6 °F 70% 30.02 in 12.0 mi Calm Calm - N/A   Clear
6:00 PM -18 °F - -26 °F 51% 30.02 in 15 mi Calm Calm - - Snow Snow
6:00 PM -16.6 °F - -25.6 °F 64% 30.02 in 15.0 mi Calm Calm - N/A   Clear
7:00 PM -20.2 °F - -27.4 °F 69% 30.02 in 15.0 mi Calm Calm - N/A   Clear
8:00 PM -20.2 °F - -27.4 °F 69% 30.02 in 15.0 mi Calm Calm - N/A   Clear
9:00 PM -22.0 °F - -29.2 °F 69% 30.02 in 15.0 mi Calm Calm - N/A   Clear